BER3832 EDDN-EDAH

Flight info

Callsign BER3832
Flight time N/A
Altitude 39000
Route ERETO1G ERETO Z715 ABKIS L132 RENKI M725 UDAXI DCT
Aircraft A320/M-SDE3FGHIRWY/LB1

Departure

Time N/A
Airport Nuremberg Airport (EDDN)

Arrival

Time 2026-05-05 07:33
Airport Heringsdorf Airport (EDAH)
Time Latitude Longitude Altitude Speed Heading
2026-05-05 07:26 53.74475 14.31701 2552 ft 199 kts 98°
2026-05-05 07:26 53.74376 14.34038 2497 ft 199 kts 96°
2026-05-05 07:26 53.74304 14.36365 2485 ft 198 kts 95°
2026-05-05 07:26 53.74239 14.38691 2480 ft 198 kts 94°
2026-05-05 07:27 53.74175 14.41013 2477 ft 198 kts 94°
2026-05-05 07:27 53.74145 14.43339 2477 ft 199 kts 84°
2026-05-05 07:27 53.74595 14.45534 2477 ft 200 kts 57°
2026-05-05 07:27 53.75574 14.47177 2480 ft 200 kts 30°
2026-05-05 07:28 53.76872 14.48004 2479 ft 200 kts 15°
2026-05-05 07:28 53.78214 14.48639 2480 ft 200 kts 15°
2026-05-05 07:28 53.79557 14.49277 2478 ft 200 kts 13°
2026-05-05 07:28 53.80928 14.49325 2480 ft 198 kts 343°
2026-05-05 07:29 53.82101 14.48181 2481 ft 196 kts 312°
2026-05-05 07:29 53.82759 14.46200 2481 ft 195 kts 284°
2026-05-05 07:29 53.83116 14.43984 2480 ft 195 kts 284°
2026-05-05 07:29 53.83481 14.41768 2481 ft 196 kts 284°
2026-05-05 07:30 53.83849 14.39551 2478 ft 195 kts 285°
2026-05-05 07:30 53.84589 14.35104 2295 ft 200 kts 285°
2026-05-05 07:30 53.84964 14.32859 1999 ft 195 kts 285°
2026-05-05 07:31 53.85317 14.30725 1767 ft 182 kts 285°
2026-05-05 07:31 53.85643 14.28749 1498 ft 165 kts 286°
2026-05-05 07:31 53.85935 14.26985 1320 ft 146 kts 286°
2026-05-05 07:31 53.86191 14.25406 1115 ft 136 kts 286°
2026-05-05 07:32 53.86428 14.23896 932 ft 130 kts 286°
2026-05-05 07:32 53.86677 14.22409 746 ft 129 kts 288°
2026-05-05 07:32 53.86934 14.20964 592 ft 128 kts 288°
2026-05-05 07:32 53.87177 14.19516 426 ft 127 kts 287°
2026-05-05 07:33 53.87403 14.18068 255 ft 127 kts 287°
2026-05-05 07:33 53.87638 14.16626 107 ft 126 kts 287°
2026-05-05 07:33 53.87859 14.15333 86 ft 92 kts 285°
2026-05-05 07:33 53.87985 14.14563 82 ft 43 kts 285°
2026-05-05 07:34 53.88020 14.14350 68 ft 2 kts 285°
2026-05-05 07:34 53.88044 14.14196 79 ft 21 kts 285°
2026-05-05 07:34 53.88082 14.13956 81 ft 14 kts 272°
2026-05-05 07:34 53.88022 14.13889 74 ft 0 kts 180°
2026-05-05 07:35 53.88018 14.13889 74 ft 2 kts 180°
2026-05-05 07:35 53.87988 14.13891 66 ft 6 kts 177°
2026-05-05 07:35 53.87949 14.13916 69 ft 6 kts 138°
2026-05-05 07:36 53.87924 14.13974 67 ft 6 kts 147°
2026-05-05 07:36 53.87898 14.13946 67 ft 5 kts 251°
2026-05-05 07:36 53.87903 14.13932 66 ft 0 kts 327°